This is the latest recevied weather packets stored in our database for station/object N4PWG. If no packets are shown the sender has not sent any weather packets the latest 10 day(s).
| Time | Temp. | Humidity | Pressure | Rain* | Wind** | Luminosity | Snow |
|---|---|---|---|---|---|---|---|
| 1778039825 | 12.22° C | 99% | 1025.5 hPa | 30.73 mm | - | 0 W/m² | - |
| 1778039521 | 12.22° C | 99% | 1025.3 hPa | 28.7 mm | - | 0 W/m² | - |
| 1778039217 | 12.22° C | 99% | 1025.3 hPa | 22.86 mm | - | 0 W/m² | - |
| 1778038915 | 12.78° C | 99% | 1024.8 hPa | 13.72 mm | - | 0 W/m² | - |
| 1778038612 | 13.33° C | 99% | 1024.7 hPa | 3.05 mm | - | 0 W/m² | - |
| 1778038309 | 13.33° C | 99% | 1024.5 hPa | 1.27 mm | - | 0 W/m² | - |
| 1778038006 | 13.89° C | 99% | 1024.5 hPa | 1.78 mm | - | 0 W/m² | - |
| 1778037703 | 13.89° C | 99% | 1024.7 hPa | 1.78 mm | - | 0 W/m² | - |
| 1778037400 | 13.89° C | 99% | 1024.5 hPa | 0 mm | - | 0 W/m² | - |
| 1778037097 | 15.56° C | 99% | 1024.5 hPa | 0 mm | - | 0 W/m² | - |
| 1778036796 | 16.67° C | 99% | 1024.4 hPa | 0 mm | - | 0 W/m² | - |
| 1778036492 | 17.78° C | 99% | 1024.3 hPa | 13.72 mm | - | 0 W/m² | - |
| 1778036189 | 17.78° C | 99% | 1023.6 hPa | 13.72 mm | - | 0 W/m² | - |
| 1778035885 | 18.33° C | 99% | 1023.7 hPa | 1.27 mm | - | 0 W/m² | - |
| 1778035583 | 17.78° C | 99% | 1023.2 hPa | 0 mm | - | 0 W/m² | - |
| 1778035279 | 17.78° C | 99% | 1022.9 hPa | 0 mm | - | 0 W/m² | - |
| 1778034975 | 17.78° C | 99% | 1023.4 hPa | 0 mm | - | 0 W/m² | - |
| 1778034673 | 17.78° C | 99% | 1023.3 hPa | 0 mm | - | 0 W/m² | - |
| 1778034370 | 17.78° C | 99% | 1023.3 hPa | 0 mm | - | 0 W/m² | - |
| 1778034067 | 17.78° C | 99% | 1023.3 hPa | 0 mm | - | 0 W/m² | - |
| 1778033765 | 17.78° C | 99% | 1023.1 hPa | 0 mm | - | 0 W/m² | - |
| 1778033462 | 17.78° C | 99% | 1022.8 hPa | 0 mm | - | 0 W/m² | - |
| 1778033159 | 17.78° C | 99% | 1023 hPa | 0 mm | - | 0 W/m² | - |
| 1778032857 | 17.78° C | 99% | 1023.3 hPa | 0 mm | - | 0 W/m² | - |
| 1778032554 | 17.78° C | 99% | 1023.2 hPa | 0 mm | - | 0 W/m² | - |
* Rain latest hour (hover to see other rain measurements)
** Current wind speed in m/s (hover to see current wind gust speed)